User: anonymous   Login
Location: Unspecified
(0.0000°N, 0.0000°E)
Time: 11:07:56
(UTC+00:00)
Language:

Hubble Space Telescope - Orbit

View from above orbital plane
View from above orbital plane
View from above satellite
View from above satellite

Ground track
Ground track

The orbit data is extracted from the following two-line orbital elements,

1 20580U 90037B   19081.41144038  .00000455  00000-0  16782-4 0  9990
2 20580  28.4697  75.6723 0002423 252.8772 240.0666 15.09191248387548
Epoch (UTC): 22 March 2019 09:52:28
Eccentricity: 0.0002423
inclination: 28.4697°
perigee height: 537 km
apogee height: 540 km
right ascension of ascending node: 75.6723°
argument of perigee: 252.8772°
revolutions per day: 15.09191248
mean anomaly at epoch: 240.0666°
orbit number at epoch: 38754

The dashed part of the orbit path shows where the satellite is in the earth's shadow,  

DLR